Overview Statistics Trail Chart Weather Telemetry Raw packets
 

This is the latest recevied weather packets stored in our database for station/object KY0TEQ-13. If no packets are shown the sender has not sent any weather packets the latest 10 day(s).

<< 38 39 40 41 42 43 44 >>
Time Temp. Humidity Pressure Rain* Wind** Luminosity Snow
1788427581 12.22° C 69% 1308.6 hPa 0 mm - 0 W/m² -
1788427276 12.22° C 69% 1308.8 hPa 0 mm - 0 W/m² -
1788426974 12.22° C 69% 1308.6 hPa 0 mm - 0 W/m² -
1788426669 12.78° C 67% 1308.5 hPa 0 mm - 0 W/m² -
1788426365 12.78° C 66% 1308.4 hPa 0 mm - 0 W/m² -
1788426063 12.78° C 66% 1308.4 hPa 0 mm - 0 W/m² -
1788425762 12.22° C 69% 1308.4 hPa 0 mm - 0 W/m² -
1788425458 12.22° C 68% 1308.4 hPa 0 mm - 0 W/m² -
1788425156 12.78° C 67% 1308.3 hPa 0 mm - 0 W/m² -
1788424851 12.78° C 66% 1308.3 hPa 0 mm - 0 W/m² -
1788424547 12.78° C 66% 1308.5 hPa 0 mm - 0 W/m² -
1788424246 12.78° C 65% 1308.4 hPa 0 mm - 0 W/m² -
1788423940 12.78° C 67% 1308.6 hPa 0 mm - 0 W/m² -
1788423636 12.78° C 67% 1308.5 hPa 0 mm - 0 W/m² -
1788423331 13.33° C 66% 1308.4 hPa 0 mm - 0 W/m² -
1788423027 13.89° C 64% 1308.4 hPa 0 mm - 0 W/m² -
1788422724 13.33° C 64% 1308.5 hPa 0 mm - 0 W/m² -
1788422420 13.33° C 65% 1308.5 hPa 0 mm - 0 W/m² -
1788422120 14.44° C 62% 1308.4 hPa 0 mm - 0 W/m² -
1788421815 13.33° C 63% 1308.3 hPa 0 mm - 0 W/m² -
1788421514 13.33° C 64% 1308.5 hPa 0 mm - 0 W/m² -
1788421209 13.89° C 63% 1308.5 hPa 0 mm - 0 W/m² -
1788420904 13.89° C 62% 1308.6 hPa 0 mm - 0 W/m² -
1788420600 13.33° C 63% 1308.4 hPa 0 mm - 0 W/m² -
1788420295 13.33° C 64% 1308.6 hPa 0 mm - 0 W/m² -

* Rain latest hour (hover to see other rain measurements)
** Current wind speed in m/s (hover to see current wind gust speed)